Location: Gammelsbach
(49.5261°N, 8.9630°E)
Time: 20:16:05
(UTC+00:00)

Cosmos 1703 - Pass Details

Date: 17 June 2025
Orbit: 441 x 453 km, 82.5° (Epoch: 16 July)

Event Time Altitude Azimuth Distance (km) Brightness Sun altitude
Exits shadow 22:22:07 19° 221° (SW) 1,168 4.7 -15.7°
Maximum altitude 22:24:18 42° 285° (WNW) 672 4.0 -15.8°
Drops below altitude 10° 22:27:40 10° 357° (N) 1,611 7.0 -16.0°
Sets 22:29:50 0° 5° (N) 2,489 8.1 -16.0°
